Voltar ao catálogo

SL-16 DEB

LostLEO
NORAD 39879·DEBRIS·🇷🇺 Russia

Lançado Mar 26, 1993 de Baikonur Cosmodrome

Loading…

Próximas Passagens (próximas 24 horas)

TLE

ObsoletoSource: Space-Track

Época: Aug 23, 2022, 22:11 UTC

1 39879U 93016BD  22235.92465339  .00001881  00000-0  73839-3 0  9991
2 39879  70.9875 322.8225 0118430  94.2974  23.7294 14.26815282958952

Acompanhe SL-16 DEB em tempo real com AllMySat

Download on the App Store